Flag for Micronesia Weather past 2 weeks in Kolonia, Ponape, Micronesia

Now
85 °F

Mostly cloudy.


Feels Like: 98 °F
Forecast: 74 / 85 °F
Wind: 3 mph from Southwest

Location: Pohnpei

Current Time: Jul 24, 2014 at 11:32:33 AM

Latest Report: Jul 24, 2014 at 10:50 AM


Visibility: 15 mi

Pressure: 29.83 "Hg

Humidity: 80%

Dew point: 79 °F

Location of KoloniaLocation

Historic Weather in Kolonia — Graph

°F

Kolonia temperature yesterday

Maximum temperature yesterday: 84 °F (at 11:50 AM)
Minimum temperature yesterday: 75 °F (at 2:52 AM)
Average temperature yesterday: 79 °F

Past Weeks' High & Low Weather Summary

 TemperatureHumidityPressure
High89 °F (Jul 21, 2:55 PM)99% (Jul 13, 5:52 AM)29.91 "Hg (Jul 13, 5:52 AM)
Low74 °F (Jul 11, 3:52 AM)66% (Jul 19, 3:55 PM)29.75 "Hg (Jul 23, 3:55 AM)
Average80 °F88%29.83 "Hg
* Reported Jul 9 9:50 AM — Jul 24 9:50 AM, Kolonia, Weather by CustomWeather, © 2014

Note: Actual official high and low records may vary slightly from our data, if they occured in-between our weather recording intervals... More about our weather records

Advertising

Kolonia weather history for previous 24 hours

 ConditionsComfort  
Time TempWeatherWind HumidityBarometerVisibility
9:50 AM
Jul 24
83 °FPartly sunny.3 mph86%29.83 "Hg15 mi
8:50 AM80 °FMostly cloudy.3 mph91%29.84 "Hg15 mi
7:52 AM78 °FSprinkles. Mostly cloudy.3 mph94%29.83 "Hg15 mi
6:51 AM76 °FMostly cloudy.2 mph96%29.80 "Hg15 mi
5:52 AM76 °FMostly cloudy.3 mph96%29.78 "Hg15 mi
4:52 AM77 °FMostly cloudy.3 mph93%29.77 "Hg15 mi
3:52 AM78 °FMostly cloudy.3 mph92%29.76 "Hg15 mi
2:52 AM78 °FMostly cloudy.5 mph93%29.76 "Hg15 mi
1:57 AM78 °FMostly cloudy.6 mph92%29.78 "Hg15 mi
12:51 AM77 °FMostly cloudy.3 mph91%29.80 "Hg15 mi
11:55 PM
Jul 23
78 °FMostly cloudy.2 mph94%29.82 "Hg15 mi
9:55 PM77 °FMostly cloudy.5 mph96%29.83 "Hg15 mi
8:55 PM76 °FSprinkles. Mostly cloudy.5 mph95%29.82 "Hg12 mi
7:55 PM76 °FSprinkles. Mostly cloudy.2 mph96%29.83 "Hg10 mi
6:55 PM77 °FMostly cloudy.1 mph95%29.80 "Hg15 mi
4:55 PM78 °FSprinkles. Mostly cloudy.12 mph93%29.76 "Hg7 mi
3:54 PM82 °FMostly cloudy.3 mph88%29.75 "Hg15 mi
2:56 PM80 °FSprinkles. Mostly cloudy.3 mph90%29.77 "Hg15 mi
1:55 PM80 °FSprinkles. Mostly cloudy.3 mph92%29.77 "Hg12 mi
12:53 PM84 °FMostly cloudy.3 mph84%29.78 "Hg15 mi
11:50 AM84 °FMore clouds than sun.3 mph84%29.80 "Hg15 mi
Weather by CustomWeather, © 2014

See weather overviewHow to use our weather pages